Regional Weather Roundup
Issued by NWS Newport/Morehead, NC

Current Version | Previous Version | Text Only | Print | Product List | Glossary On
Versions: 1 2 3 4 5 6 7 8 9 10 11 12 13 14 15 16 17 18 19 20 21 22 23 24 25 26 27 28 29 30 31 32 33 34 35 36 37 38 39 40 41 42 43 44 45 46 47 48 49 50
000
ASUS42 KMHX 180024
RWRMHX
WEATHER ROUNDUP FOR EASTERN NORTH CAROLINA
NATIONAL WEATHER SERVICE NEWPORT/MOREHEAD CITY NC
800 PM EDT FRI APR 17 2015

NOTE: "FAIR" INDICATES FEW OR NO CLOUDS BELOW 12,000 FEET
WITH NO SIGNIFICANT WEATHER AND/OR OBSTRUCTIONS TO VISIBILITY

NCZ015>017-031-032-045>047-102-103-180100-
NORTH COAST

CITY           SKY/WX    TMP DP  RH WIND       PRES   REMARKS
EDENTON        MOCLDY    69  63  81 SE3       29.99S
ELIZABETH CITY MOCLDY    69  60  73 SE5       29.99S
KITTY HAWK     MOCLDY    68  62  81 CALM      30.00R
MANTEO         MOCLDY    66  63  88 S6        30.01S

$$

NCZ045>047-081-094-103-104-180100-
CENTRAL COAST

CITY           SKY/WX    TMP DP  RH WIND       PRES   REMARKS
FRISCO         PTCLDY    62  59  90 E3        30.01S
SWANQUARTER      N/A     70 N/A N/A S2        29.97S

$$

NCZ095-097-098-100-101-180100-
SOUTHERN COAST

CITY           SKY/WX    TMP DP  RH WIND       PRES   REMARKS
BEAUFORT       MOCLDY    70  65  84 CALM      30.00S
CEDAR ISLAND     N/A     70 N/A N/A SE1       30.03S
JACKSONVILLE   MOCLDY    70  63  78 S3        30.00R
PINEY ISLAND   PTCLDY   N/A N/A N/A CALM      30.00S
WILMINGTON     CLOUDY    70  65  84 E3        29.99F


$$

NCZ011>013-027>030-043-044-078>080-089-090>093-098-180100-
COASTAL PLAIN

CITY           SKY/WX    TMP DP  RH WIND       PRES   REMARKS
AHOSKIE        MOCLDY    67  63  87 CALM      29.98F
CLINTON        PTCLDY    71  66  85 CALM      30.00S
ELIZABETHTOWN  MOCLDY    70  66  88 CALM      30.00R
GOLDSBORO      PTCLDY    71  65  83 CALM      29.97S
GREENVILLE     MOCLDY    70  64  83 CALM      30.01S
HAVELOCK       MOCLDY    68  61  78 S5        30.01R
KENANSVILLE    PTCLDY    68  65  91 CALM      30.01R
KINSTON        PTCLDY    70  64  83 S3        30.00S
NEW BERN       CLOUDY    72  64  76 S3        30.01R
RICHLANDS      PTCLDY    70  61  73 CALM      30.01R
ROCKY MOUNT    CLOUDY    70  65  84 CALM      29.98F
WASHINGTON     MOCLDY    70  64  81 SE3       30.00R
WHITEVILLE     CLOUDY    69  66  90 CALM      29.99S

$$

AMZ130-135-150-152-154-156-158-170-250-252-270-ANZ085-086-088-633-658-670-180100-
MARINE OBSERVATIONS

STATION/POSITION TIME  TEMP    WIND        PRES    WAVE   SWELL
                       AIR SEA DIR/SP/G            HT/PER HT/PER
                 (UTC) (F)     (DEG/KT/KT) (MB)    (FT/S) (FT/S)
CHESAPEAKE LIGHT 0000   60     180/ 22/ 22 1015.2
64 E VA BEACH    2350   62 58  180/  4/  6 1015.4    5/ 8   5/ 8
DUCK             0000   58 52  140/  8/  9 1015.1
2 E DUCK         2311      54                N/A     4/ 7   2/11
10 NE DUCK       NOT AVBL
OREGON INLET     0000   60 64  110/  5/  7 1016.0
HATTERAS CG      0000   70 68   90/  2/  3 1015.6
DIAMOND BUOY     2350   71 75   CALM  /  2 1016.0    6/ 8   5/ 8
CAPE LOOKOUT     0000   69     100/  4/  4 1015.6
BEAUFORT LAB     0000   69 63  130/  3/  4 1015.1
27 SE WRIGHTSVLE 0000   71 73  110/  8/ 10   N/A
5 SE WRIGHTSVLE  0000   65 63   40/  4/  6 1015.3
225 S CAPE HAT   2350   71 73   20/  6/  8 1015.3    7/ 8   7/ 8
41 SE CHARLESTON 2350   71 75  360/ 10/ 12 1014.4    4/ 9   3/ 9

$$



USA.gov is the U.S. government's official web portal to all federal, state and local government web resources and services.